Location: Axtheid
(49.6213°N, 11.8205°E)
Time: 17:21:28
(UTC+00:00)

Envisat - Pass Details

Date: 04 October 2022
Orbit: 763 x 765 km, 98.2° (Epoch: 30 November)

Event Time Altitude Azimuth Distance (km) Brightness Sun altitude
Rises 03:19:25 0° 17° (NNE) 3,246 6.7 -19.6°
Reaches altitude 10° 03:21:48 10° 22° (NNE) 2,315 6.0 -19.3°
Maximum altitude 03:26:48 55° 100° (E) 918 3.7 -18.5°
Drops below altitude 10° 03:31:46 10° 178° (S) 2,297 5.3 -17.7°
Sets 03:34:07 0° 183° (S) 3,218 6.1 -17.3°
